Regional Weather Roundup
Issued by NWS

Home | Current Version | Previous Version | Graphics & Text | Print | Product List | Glossary On
Versions: 1 2 3 4 5 6 7 8 9 10 11 12 13 14 15 16 17 18 19 20 21 22 23 24 25 26 27 28 29 30 31 32 33 34 35 36 37 38 39 40 41 42 43 44 45 46 47 48 49 50
000
ASUS43 KOAX 180210
RWRNE

WEATHER ROUNDUP FOR NEBRASKA
NATIONAL WEATHER SERVICE OMAHA NE
900 PM CDT FRI APR 17 2015

NOTES: SATELLITE DATA IS BEING USED TO AUGMENT CLOUD COVER ABOVE
       12000 FEET.
       "FAIR" INDICATES FEW OR NO CLOUDS BELOW 12,000 FEET WITH NO
       SIGNIFICANT WEATHER AND/OR OBSTRUCTIONS TO VISIBILITY.

  * THESE STATIONS DO NOT REPORT WEATHER SUCH AS RAIN...SNOW OR FOG.

NEZ001>004-019>022-054>056-180300-
NEBRASKA PANHANDLE

CITY           SKY/WX    TMP DP  RH WIND       PRES   REMARKS
SCOTTSBLUFF    CLOUDY    44  44 100 W13       30.04R
ALLIANCE       CLOUDY    48  47  96 NE15      30.03S
CHADRON        CLOUDY    46  44  93 N10       30.07F
KIMBALL        TSTM      42  40  95 NW13      30.02R
SIDNEY         LGT RAIN  51  49  92 NE9       30.00S FOG
$$

NEZ057>060-069>072-079>082-180300-
SOUTHWEST NEBRASKA

CITY           SKY/WX    TMP DP  RH WIND       PRES   REMARKS
NORTH PLATTE   MOCLDY    58  54  86 E12       29.98S
IMPERIAL       MOCLDY    57  50  77 E8        29.94R THUNDER
LEXINGTON      PTCLDY    59  56  89 E10       29.98R
MCCOOK         MOCLDY    62  52  69 E8        29.94R THUNDER
OGALLALA       MOCLDY    54  53  96 NE9       29.97S
$$

NEZ005>010-023>029-035>040-094-180300-
NORTH CENTRAL NEBRASKA

CITY           SKY/WX    TMP DP  RH WIND       PRES   REMARKS
VALENTINE      CLOUDY    53  51  93 W7        30.07R
AINSWORTH      CLOUDY    54  52  95 NE7       30.05S
BROKEN BOW     CLOUDY    58  54  86 NE12      30.01R
O`NEILL        CLOUDY    60  50  69 N7        30.04S
ORD            RAIN      57  52  83 NE8       30.01R
THEDFORD       CLOUDY    54  52  95 NE8       30.03F FOG
$$

NEZ041-046>049-061>064-073>077-083>087-180300-
SOUTH CENTRAL NEBRASKA

CITY           SKY/WX    TMP DP  RH WIND       PRES   REMARKS
GRAND ISLAND   PTCLDY    58  53  84 SE5       29.99S
AURORA         CLEAR     59  55  86 SE5       29.99R
HASTINGS       CLEAR     61  53  75 E8        29.98R
HEBRON         MOCLDY    62  55  75 CALM      29.98R
HOLDREGE       PTCLDY    59  55  88 E10       29.97R
KEARNEY *      CLEAR     57  54  88 E9        29.98S
YORK           LGT RAIN  61  57  88 E8        29.99S
$$

NEZ011>018-030>034-042>045-180300-
NORTHEAST NEBRASKA

CITY           SKY/WX    TMP DP  RH WIND       PRES   REMARKS
ALBION         CLOUDY    64  49  58 NE9       30.00S
BLAIR          CLOUDY    68  51  53 E6        30.00R
COLUMBUS *     MOCLDY    64  52  63 E5        30.01S
FREMONT        CLOUDY    70  51  51 CALM      29.99S
TEKAMAH        CLOUDY    67  51  56 E7        29.98S
WAYNE          LGT RAIN  63  55  77 S9        30.03R
$$

NEZ050>053-065>068-078-088>093-180300-
SOUTHEAST NEBRASKA

CITY           SKY/WX    TMP DP  RH WIND       PRES   REMARKS
LINCOLN        CLOUDY    68  55  63 S6        29.99S
OMAHA EPPLEY   CLOUDY    71  53  52 E3        29.98S
BEATRICE       CLOUDY    63  54  72 E5        29.98R
FALLS CITY     CLOUDY    68  57  68 SW3       29.97R
NEBRASKA CITY  CLOUDY    65  51  62 CALM      29.99R
PLATTSMOUTH    CLOUDY    67  51  56 SE5       30.00R
$$

NEZ044-045-051>053-067-180300-
OMAHA AREA

CITY           SKY/WX    TMP DP  RH WIND       PRES   REMARKS
OMAHA EPPLEY   CLOUDY    71  53  52 E3        29.98S
BLAIR          CLOUDY    68  51  53 E6        30.00R
FREMONT        CLOUDY    70  51  51 CALM      29.99S
MILLARD        CLOUDY    68  55  63 CALM      29.98S
OFFUTT AFB     CLOUDY    65  55  69 E5        29.98R
PLATTSMOUTH    CLOUDY    67  51  56 SE5       30.00R
WAHOO          MOCLDY    65  53  63 E7        29.98S
$$



USA.gov is the U.S. government's official web portal to all federal, state and local government web resources and services.